This is the latest recevied weather packets stored in our database for station/object KC4BAM. If no packets are shown the sender has not sent any weather packets the latest 1 day(s).
| Time | Temp. | Humidity | Pressure | Rain* | Wind** | Luminosity | Snow |
|---|---|---|---|---|---|---|---|
| 1777985862 | 17.22° C | 69% | 1001.2 hPa | 0 mm | 1.34 m/s, 229° | 66 W/m² | - |
| 1777985560 | 17.22° C | 69% | 1001.1 hPa | 0 mm | 0.89 m/s, 218° | 61 W/m² | - |
| 1777985256 | 17.22° C | 69% | 1001 hPa | 0 mm | 1.79 m/s, 212° | 54 W/m² | - |
| 1777984953 | 17.22° C | 69% | 1001.2 hPa | 0 mm | 1.79 m/s, 190° | 51 W/m² | - |
| 1777984648 | 16.67° C | 69% | 1001.2 hPa | 0 mm | 1.79 m/s, 211° | 49 W/m² | - |
| 1777984346 | 16.67° C | 69% | 1001.1 hPa | 0 mm | 0.45 m/s, 196° | 51 W/m² | - |
| 1777984042 | 16.67° C | 69% | 1001.1 hPa | 0 mm | 1.34 m/s, 211° | 51 W/m² | - |
| 1777983740 | 16.67° C | 70% | 1001 hPa | 0 mm | 0.89 m/s, 176° | 43 W/m² | - |
| 1777983436 | 16.67° C | 70% | 1001 hPa | 0 mm | 0.89 m/s, 187° | 38 W/m² | - |
| 1777983133 | 16.67° C | 70% | 1001.1 hPa | 0 mm | 0.89 m/s, 201° | 32 W/m² | - |
| 1777982829 | 16.67° C | 70% | 1001.1 hPa | 0 mm | 0.89 m/s, 217° | 31 W/m² | - |
| 1777982525 | 16.11° C | 70% | 1001.1 hPa | 0 mm | 1.79 m/s, 183° | 25 W/m² | - |
| 1777982219 | 16.11° C | 70% | 1000.9 hPa | 0 mm | 0.89 m/s, 200° | 24 W/m² | - |
| 1777981917 | 16.11° C | 70% | 1001 hPa | 0 mm | 0.89 m/s, 211° | 20 W/m² | - |
| 1777981614 | 16.11° C | 71% | 1001 hPa | 0 mm | 1.34 m/s, 208° | 15 W/m² | - |
| 1777981310 | 16.11° C | 70% | 1000.9 hPa | 0 mm | 0.45 m/s, 202° | 16 W/m² | - |
| 1777981006 | 16.11° C | 70% | 1000.8 hPa | 0 mm | 0.89 m/s, 209° | 15 W/m² | - |
| 1777980703 | 16.11° C | 70% | 1000.8 hPa | 0 mm | 0.89 m/s, 226° | 12 W/m² | - |
| 1777980400 | 16.11° C | 70% | 1000.7 hPa | 0 mm | 0.45 m/s, 183° | 9 W/m² | - |
| 1777980098 | 16.11° C | 70% | 1000.6 hPa | 0 mm | 0.89 m/s, 215° | 8 W/m² | - |
| 1777979797 | 16.11° C | 70% | 1000.6 hPa | 0 mm | 0.89 m/s, 213° | 6 W/m² | - |
| 1777979493 | 16.11° C | 70% | 1000.5 hPa | 0 mm | 1.34 m/s, 182° | 5 W/m² | - |
| 1777979189 | 16.11° C | 70% | 1000.6 hPa | 0 mm | 0.89 m/s, 173° | 3 W/m² | - |
| 1777978887 | 16.11° C | 70% | 1000.5 hPa | 0 mm | 1.34 m/s, 202° | 2 W/m² | - |
| 1777978583 | 16.11° C | 70% | 1000.4 hPa | 0 mm | 0.45 m/s, 211° | 2 W/m² | - |
* Rain latest hour (hover to see other rain measurements)
** Current wind speed in m/s (hover to see current wind gust speed)